Regional Weather Roundup
Issued by NWS

Home | Current Version | Previous Version | Text Only | Print | Product List | Glossary Off
Versions: 1 2 3 4 5 6 7 8 9 10 11 12 13 14 15 16 17 18 19 20 21 22 23 24 25 26 27 28 29 30 31 32 33 34 35 36 37 38 39 40 41 42 43 44 45 46 47 48 49 50

869
ASUS45 KBOU 290707
RWRCO

WEATHER ROUNDUP FOR COLORADO
NATIONAL WEATHER SERVICE DENVER/BOULDER CO
100 AM MDT THU JUN 29 2017

NOTE: "FAIR" INDICATES FEW OR NO CLOUDS BELOW 12000 FEET WITH NO
SIGNIFICANT WEATHER AND/OR OBSTRUCTIONS TO VISIBILITY.

COZ001>005-013-030-031-290800-
...NORTHWEST COLORADO...

CITY           SKY/WX    TMP DP  RH WIND       PRES   REMARKS
CRAIG          FAIR      64  29  26 N8        30.01R
HAYDEN         MOCLDY    59  32  36 CALM      30.02S
MEEKER         FAIR      64  32  30 NW7       30.00R
RABBIT EARS PA FAIR      48  30  49 NE3       30.27F
STEAMBOAT SPGS FAIR      55  36  48 E3        30.04R
WALDEN         NOT AVBL
$$

COZ006>008-011-290800-
...WEST CENTRAL VALLEYS...

CITY           SKY/WX    TMP DP  RH WIND       PRES   REMARKS
GRAND JUNCTION FAIR      69  28  21 W5        29.83R
MONTROSE       FAIR      73   9   8 SW12      29.90S
EAGLE          FAIR      66  28  24 CALM      30.01S
RIFLE          FAIR      68  24  19 S5        29.90R
DELTA          FAIR      68  24  18 N9        29.86R
NUCLA          FAIR      66   7   9 E10       29.98R
$$

COZ017>023-064>068-290800-
...SOUTHWEST COLORADO...

CITY           SKY/WX    TMP DP  RH WIND       PRES   REMARKS
DURANGO        FAIR      48  21  34 CALM      30.04S
CORTEZ         FAIR      53  24  32 NE10      29.99S
PAGOSA SPRINGS FAIR      51  11  19 CALM      30.12S
TELLURIDE      FAIR      57   7  14 SE6       30.24S
WOLF CREEK PAS FAIR      50   3  14 SW7       30.47F
$$

COZ009-010-012-014-032>034-037-058>063-290800-
...CENTRAL COLORADO...

CITY           SKY/WX    TMP DP  RH WIND       PRES   REMARKS
ASPEN          FAIR      55  27  34 SW9       30.06F
BUENA VISTA    FAIR      51  18  27 CALM      30.09S
COPPER MTN     FAIR      52  18  25 S5        30.40F
BERTHOUD PASS  FAIR      39  27  60 NW12      30.41F
COTTONWOOD PAS FAIR      63 -11   5 CALM      30.23F
GUNNISON       FAIR      50  28  42 NE7       30.09F
KREMMLING      FAIR      63  32  31 SE3       30.09F
LEADVILLE      FAIR      44  18  35 N8        30.23R
MONARCH PASS   FAIR      50   5  16 SW21      30.48F
SALIDA         FAIR      65  10  11 W10       30.12S
SUNLIGHT       FAIR      54  16  22 N5        30.31F
WILKERSON PASS FAIR      52  23  32 S3        30.36S
$$

COZ069>075-290800-
...SAN LUIS VALLEY/SANGRE DE CRISTO MOUNTAINS...

CITY           SKY/WX    TMP DP  RH WIND       PRES   REMARKS
ALAMOSA        FAIR      50  23  34 SW8       30.08S
DEL NORTE      FAIR      55  14  19 SW10      30.12R
LA VETA PASS   FAIR      55  10  16 S20       30.36S
SAGUACHE       FAIR      57  10  15 N9        30.10S
$$

COZ035-036-038>040-290800-
...NORTHERN COLORADO FRONT RANGE...

CITY           SKY/WX    TMP DP  RH WIND       PRES   REMARKS
DENVER INTL AP MOCLDY    67  45  45 E7        29.92R
DMNS CITY PARK   N/A     66  47  49 E2G13     29.91F
AURORA         PTCLDY    64  46  52 NE7       29.95R
FRONT RANGE AP FAIR      66  46  48 NW5       29.95R
ERIE MUNI ARPT FAIR      65  43  44 SW3       29.90S
BOULDER MUN AP FAIR      70  37  30 CALM      29.93R
CENTENNIAL     MOCLDY    66  45  46 N9        29.96R
BROOMFIELD     FAIR      66  43  42 N6        29.95S
FORT COLLINS   FAIR      70  39  32 E10       29.90S
LONGMONT       FAIR      68  40  35 W7        29.93R
$$

COZ041-046-047-076>085-087-088-290800-
...PIKES PEAK/PALMER DIVIDE AND SOUTHERN FOOTHILLS...

CITY           SKY/WX    TMP DP  RH WIND       PRES   REMARKS
COLO. SPRINGS  FAIR      65  47  52 N7        29.96S
A. F. ACADEMY  FAIR      56  46  69 N6        29.98R
SCHRIEVER AFB  FAIR      62  46  56 N12       29.95F
CHEYENNE MTN   FAIR      65  42  42 NW7       29.95F
ELLICOTT       FAIR     N/A N/A N/A E14       29.92R
FALCON           N/A     58  46  64 NW7       30.01S
FORT CARSON    FAIR      64  45  49 N9        29.92S
LIMON          FAIR      60  53  77 E9        29.88F
MONUMENT HILL  FAIR      52  45  76 S7        30.02S
CANON CITY     CLEAR     72  45  37 E7        29.89R
WALSENBURG     FAIR      68  19  15 N7        29.93R
TRINIDAD       FAIR      69  21  16 SW13      29.88S
$$

COZ042>045-048>051-090-091-290800-
...NORTHEAST COLORADO...

CITY           SKY/WX    TMP DP  RH WIND       PRES   REMARKS
GREELEY ARPT   FAIR      64  46  52 E7        29.89S
AKRON          FAIR      63  48  58 N16       29.91R
BURLINGTON     TSTM      61  58  90 E8        29.97R
WRAY           FAIR      68  54  60 E8        29.79R
YUMA           FAIR      63  52  67 N7        29.81R
STERLING       FAIR      68  50  52 E10       29.86R THUNDER
HOLYOKE        NOT AVBL
FORT MORGAN    FAIR      67  40  38 N14       29.90F
$$

COZ086-089-092>099-290800-
...SOUTHEAST COLORADO...

CITY           SKY/WX    TMP DP  RH WIND       PRES   REMARKS
PUEBLO         FAIR      72  50  45 N6        29.83R
LA JUNTA       FAIR      72  57  59 NE20      29.75R
LAMAR          FAIR      72  59  63 E10       29.68F
SPRINGFIELD      N/A     64  51  62 S12       29.74F
$$




USA.gov is the U.S. government's official web portal to all federal, state and local government web resources and services.